Location: Palomar Mountain Lodge
(33.3110°N, 116.8495°W)
Time: 14:21:44
(UTC-08:00)

Cosmos 1125 Rocket - Pass Details

Date: 19 May 2017
Orbit: 758 x 780 km, 74.0° (Epoch: 18 December)

Event Time Altitude Azimuth Distance (km) Brightness Sun altitude
Rises 20:04:32 0° 349° (N) 3,261 7.4 -4.7°
Reaches altitude 10° 20:07:00 10° 355° (N) 2,328 6.5 -5.2°
Maximum altitude 20:12:07 48° 70° (ENE) 997 3.9 -6.1°
Drops below altitude 10° 20:17:10 10° 145° (SE) 2,302 5.4 -7.1°
Enters shadow 20:18:20 - 148° (SSE) 2,736 5.8 -7.3°
